TimeEEST,TemperatureF,Dew PointF,Humidity,Sea Level PressureIn,VisibilityMPH,Wind Direction,Wind SpeedMPH,Gust SpeedMPH,PrecipitationIn,Events,Conditions,WindDirDegrees,DateUTC
12:20 AM,68.0,66.2,94,30.04,6.2,NE,5.8,-,N/A,,Scattered Clouds,50,2013-09-25 21:20:00
12:50 AM,68.0,66.2,94,30.04,6.2,NE,5.8,-,N/A,,Scattered Clouds,50,2013-09-25 21:50:00
1:20 AM,68.0,68.0,100,30.04,6.2,NE,5.8,-,N/A,,Scattered Clouds,50,2013-09-25 22:20:00
1:50 AM,66.2,66.2,100,30.04,6.2,NE,6.9,-,N/A,,Scattered Clouds,50,2013-09-25 22:50:00
2:20 AM,66.2,66.2,100,30.04,6.2,NE,3.5,-,N/A,,Scattered Clouds,40,2013-09-25 23:20:00
2:50 AM,66.2,64.4,94,30.04,6.2,NE,4.6,-,N/A,,Scattered Clouds,40,2013-09-25 23:50:00
3:00 AM,66,65,94,30.03,6,NE,4.6,,,,Partly Cloudy,40,2013-09-26 00:00:00
3:20 AM,64.4,64.4,100,30.04,6.2,NNE,4.6,-,N/A,,Scattered Clouds,30,2013-09-26 00:20:00
3:50 AM,64.4,64.4,100,30.04,6.2,NNE,4.6,-,N/A,,Scattered Clouds,30,2013-09-26 00:50:00
4:20 AM,66.2,64.4,94,30.04,6.2,NNE,4.6,-,N/A,,Scattered Clouds,20,2013-09-26 01:20:00
4:50 AM,64.4,64.4,100,30.04,6.2,NNE,6.9,-,N/A,,Scattered Clouds,30,2013-09-26 01:50:00
5:20 AM,64.4,64.4,100,30.04,6.2,ENE,4.6,-,N/A,,Scattered Clouds,60,2013-09-26 02:20:00
5:50 AM,64.4,64.4,100,30.04,6.2,North,2.3,-,N/A,,Scattered Clouds,10,2013-09-26 02:50:00
6:20 AM,64.4,62.6,94,30.04,6.2,NNE,6.9,-,N/A,,Scattered Clouds,20,2013-09-26 03:20:00
6:50 AM,64.4,62.6,94,30.04,6.2,NE,6.9,-,N/A,,Scattered Clouds,40,2013-09-26 03:50:00
7:20 AM,66.2,64.4,94,30.06,6.2,ENE,3.5,-,N/A,,Scattered Clouds,60,2013-09-26 04:20:00
7:50 AM,68.0,68.0,100,30.06,6.2,NNE,4.6,-,N/A,,Scattered Clouds,20,2013-09-26 04:50:00
8:20 AM,71.6,64.4,78,30.06,6.2,NNE,4.6,-,N/A,,Scattered Clouds,20,2013-09-26 05:20:00
8:50 AM,77.0,64.4,65,30.06,-9999.0,NE,4.6,-,N/A,,Clear,50,2013-09-26 05:50:00
9:00 AM,76,65,60,30.07,6,NE,4.6,,,,,50,2013-09-26 06:00:00
9:20 AM,77.0,64.4,65,30.06,-9999.0,North,2.3,-,N/A,,Clear,10,2013-09-26 06:20:00
9:50 AM,78.8,64.4,61,30.06,-9999.0,North,2.3,-,N/A,,Clear,350,2013-09-26 06:50:00
10:20 AM,80.6,64.4,58,30.06,6.2,SSE,3.5,-,N/A,,Partly Cloudy,160,2013-09-26 07:20:00
10:50 AM,82.4,60.8,48,30.06,6.2,ENE,3.5,-,N/A,,Partly Cloudy,70,2013-09-26 07:50:00
11:20 AM,82.4,62.6,51,30.06,6.2,West,2.3,-,N/A,,Partly Cloudy,260,2013-09-26 08:20:00
11:50 AM,84.2,60.8,45,30.04,6.2,SE,4.6,-,N/A,,Partly Cloudy,140,2013-09-26 08:50:00
12:20 PM,86.0,59.0,40,30.04,6.2,South,5.8,-,N/A,,Partly Cloudy,180,2013-09-26 09:20:00
12:50 PM,86.0,55.4,35,30.04,6.2,South,2.3,-,N/A,,Partly Cloudy,190,2013-09-26 09:50:00
1:20 PM,86.0,53.6,33,30.01,6.2,East,4.6,-,N/A,,Partly Cloudy,90,2013-09-26 10:20:00
1:50 PM,86.0,53.6,33,30.01,6.2,SW,4.6,-,N/A,,Partly Cloudy,230,2013-09-26 10:50:00
2:20 PM,87.8,53.6,31,29.98,6.2,SSW,5.8,-,N/A,,Partly Cloudy,210,2013-09-26 11:20:00
2:50 PM,86.0,55.4,35,29.98,-9999.0,West,9.2,-,N/A,,Clear,280,2013-09-26 11:50:00
3:00 PM,87,54,23,29.97,6,West,9.2,,,,,280,2013-09-26 12:00:00
3:20 PM,87.8,53.6,31,29.98,-9999.0,SW,9.2,-,N/A,,Clear,230,2013-09-26 12:20:00
3:50 PM,87.8,51.8,29,29.98,-9999.0,WSW,9.2,-,N/A,,Clear,240,2013-09-26 12:50:00
4:20 PM,86.0,64.4,48,29.95,-9999.0,SW,16.1,-,N/A,,Clear,220,2013-09-26 13:20:00
4:50 PM,84.2,66.2,55,29.95,-9999.0,SW,12.7,-,N/A,,Clear,230,2013-09-26 13:50:00
5:20 PM,82.4,64.4,54,29.95,-9999.0,SW,13.8,-,N/A,,Clear,230,2013-09-26 14:20:00
5:50 PM,80.6,64.4,58,29.95,-9999.0,SW,8.1,-,N/A,,Clear,220,2013-09-26 14:50:00
6:20 PM,78.8,64.4,61,29.95,-9999.0,SSW,6.9,-,N/A,,Clear,210,2013-09-26 15:20:00
6:50 PM,77.0,64.4,65,29.95,-9999.0,SSW,6.9,-,N/A,,Clear,210,2013-09-26 15:50:00
7:20 PM,75.2,64.4,69,29.95,-9999.0,SSW,5.8,-,N/A,,Clear,200,2013-09-26 16:20:00
7:50 PM,75.2,64.4,69,29.98,-9999.0,SSW,4.6,-,N/A,,Clear,210,2013-09-26 16:50:00
8:20 PM,75.2,64.4,69,29.98,-9999.0,SSW,2.3,-,N/A,,Clear,210,2013-09-26 17:20:00
8:50 PM,73.4,66.2,78,29.98,-9999.0,South,2.3,-,N/A,,Clear,170,2013-09-26 17:50:00
9:00 PM,74,65,67,29.97,6,South,2.3,,,,,170,2013-09-26 18:00:00
9:20 PM,73.4,66.2,78,29.98,-9999.0,SSE,1.2,-,N/A,,Clear,160,2013-09-26 18:20:00
9:50 PM,73.4,66.2,78,29.98,-9999.0,ESE,2.3,-,N/A,,Clear,110,2013-09-26 18:50:00
10:20 PM,71.6,64.4,78,29.95,-9999.0,East,2.3,-,N/A,,Clear,90,2013-09-26 19:20:00
10:50 PM,66.2,64.4,94,29.95,-9999.0,ENE,5.8,-,N/A,,Clear,60,2013-09-26 19:50:00
11:20 PM,66.2,64.4,94,29.95,-9999.0,ENE,2.3,-,N/A,,Clear,70,2013-09-26 20:20:00
11:50 PM,64.4,62.6,94,29.95,-9999.0,ENE,6.9,-,N/A,,Clear,60,2013-09-26 20:50:00